Location: Complexul Astronomic Baia Mare
(47.6577°N, 23.5639°E)
Time: 06:43:54
(UTC+03:00)

ISS - Pass Details

Date: 23 May 2017
Orbit: 402 x 408 km, 51.6° (Epoch: 29 May)

Event Time Altitude Azimuth Distance (km) Brightness Sun altitude
Rises 23:44:42 0° 242° (WSW) 2,326 0.0 -18.2°
Reaches altitude 10° 23:46:46 10° 242° (WSW) 1,467 -1.1 -18.3°
Maximum altitude 23:50:03 83° 157° (SSE) 415 -4.0 -18.5°
Drops below altitude 10° 23:53:22 10° 67° (ENE) 1,470 -1.0 -18.7°
Sets 23:55:27 0° 67° (ENE) 2,331 0.1 -18.9°
